Burlington, WA
on Monday, December 3, 2012

Monday
Previous Day Next Day
Daily Summary
 ActualAverage (KBLI)Record (KBLI)
Temperature
Mean Temperature °F 39°F  
Max Temperature 51°F 46°F 59°F (1989)
Min Temperature 42°F 33°F 20°F (1994)
Degree Days
Heating Degree Days 18 26  
Month to date heating degree days 76  
Cooling Degree Days 0 0  
Month to date cooling degree days 0  
Year to date cooling degree days 42  
Moisture
Dew Point 46°F   
Average Humidity 92    
Maximum Humidity 100    
Minimum Humidity 82    
Precipitation
Precipitation 0.00 in 0.17 in 1.52 in (1982)
Month to date precipitation 0.51  
Year to date precipitation 32.12  
Wind
Wind Speed 9 mph   
Max Wind Speed 16 mph   
Max Gust Speed 29 mph   
Visibility 10 miles   
Events     

Key: T is trace of precipitation, MM is missing value
Source: NWS Daily Summary
Time(PST)TemperatureDew PointHumidity Pressure Visibility Wind DirectionWind SpeedGust SpeedPrecipitationEvents Conditions
12:15 AM 48.2°F 46.4°F 93% 29.76 in 10.0 miles South 8.1 mph - 0.00 in   Overcast
12:35 AM 48.2°F 46.4°F 93% 29.75 in 10.0 miles South 10.4 mph - 0.00 in   Overcast
12:55 AM 48.2°F 46.4°F 93% 29.74 in 10.0 miles South 10.4 mph - 0.00 in   Overcast
1:15 AM 48.2°F 46.4°F 93% 29.74 in 10.0 miles South 9.2 mph 16.1 mph 0.00 in   Overcast
1:35 AM 48.2°F 44.6°F 87% 29.75 in 10.0 miles SE 12.7 mph 16.1 mph 0.00 in   Overcast
1:55 AM 48.2°F 44.6°F 87% 29.75 in 10.0 miles SSE 9.2 mph 16.1 mph 0.00 in   Overcast
2:15 AM 48.2°F 44.6°F 87% 29.75 in 10.0 miles SSE 10.4 mph 18.4 mph 0.00 in   Overcast
2:55 AM 48.2°F 44.6°F 87% 29.76 in 10.0 miles South 16.1 mph 28.8 mph 0.00 in   Overcast
3:15 AM 46.4°F 44.6°F 93% 29.77 in 10.0 miles SSE 13.8 mph 18.4 mph 0.00 in   Overcast
3:35 AM 46.4°F 44.6°F 93% 29.78 in 10.0 miles South 13.8 mph 26.5 mph 0.00 in   Mostly Cloudy
3:55 AM 46.4°F 44.6°F 93% 29.81 in 8.0 miles South 15.0 mph 23.0 mph 0.00 in   Mostly Cloudy
4:15 AM 46.4°F 46.4°F 100% 29.82 in 8.0 miles South 11.5 mph 17.3 mph 0.00 in   Overcast
4:35 AM 46.4°F 46.4°F 100% 29.83 in 10.0 miles South 9.2 mph - 0.00 in   Mostly Cloudy
4:55 AM 46.4°F 46.4°F 100% 29.86 in 10.0 miles SSW 9.2 mph - 0.00 in   Mostly Cloudy
5:15 AM 46.4°F 46.4°F 100% 29.87 in 10.0 miles South 6.9 mph - 0.00 in   Overcast
5:35 AM 46.4°F 46.4°F 100% 29.87 in 10.0 miles South 4.6 mph - 0.00 in   Overcast
5:55 AM 46.4°F 44.6°F 93% 29.87 in 10.0 miles SSE 5.8 mph - 0.00 in   Mostly Cloudy
6:15 AM 44.6°F 44.6°F 100% 29.88 in 10.0 miles ESE 5.8 mph - 0.00 in   Overcast
6:35 AM 44.6°F 44.6°F 100% 29.88 in 10.0 miles East 4.6 mph - 0.00 in   Overcast
6:55 AM 44.6°F 44.6°F 100% 29.88 in 10.0 miles ESE 4.6 mph - 0.00 in   Overcast
7:15 AM 42.8°F 42.8°F 100% 29.89 in 10.0 miles ESE 4.6 mph - 0.00 in   Mostly Cloudy
7:35 AM 42.8°F 42.8°F 100% 29.90 in 10.0 miles East 5.8 mph - 0.00 in   Overcast
7:55 AM 44.6°F 44.6°F 100% 29.92 in 10.0 miles East 3.5 mph - 0.00 in   Overcast
8:15 AM 44.6°F 44.6°F 100% 29.94 in 10.0 miles East 4.6 mph - 0.00 in   Mostly Cloudy
8:35 AM 44.6°F 44.6°F 100% 29.94 in 10.0 miles Calm Calm - 0.00 in   Partly Cloudy
8:55 AM 46.4°F 46.4°F 100% 29.94 in 10.0 miles SE 5.8 mph - 0.00 in   Scattered Clouds
9:35 AM 46.4°F 46.4°F 100% 29.96 in 10.0 miles SE 8.1 mph - 0.00 in   Partly Cloudy
9:55 AM 46.4°F 46.4°F 100% 29.97 in 10.0 miles SE 8.1 mph - 0.00 in   Clear
10:15 AM 48.2°F 46.4°F 93% 29.98 in 10.0 miles SE 8.1 mph - 0.00 in   Scattered Clouds
10:35 AM 48.2°F 46.4°F 93% 29.99 in 10.0 miles ESE 6.9 mph - 0.00 in   Mostly Cloudy
10:55 AM 48.2°F 46.4°F 93% 30.00 in 10.0 miles ESE 8.1 mph - 0.00 in   Overcast
11:15 AM 48.2°F 46.4°F 93% 30.00 in 10.0 miles ESE 9.2 mph - 0.00 in   Overcast
11:35 AM 48.2°F 46.4°F 93% 30.00 in 10.0 miles ESE 8.1 mph - 0.00 in   Overcast
11:55 AM 48.2°F 46.4°F 93% 30.00 in 10.0 miles SE 10.4 mph - 0.00 in   Mostly Cloudy
12:15 PM 48.2°F 46.4°F 93% 30.00 in 10.0 miles SE 8.1 mph - 0.00 in   Mostly Cloudy
12:35 PM 50.0°F 46.4°F 87% 29.99 in 10.0 miles ESE 10.4 mph - 0.00 in   Overcast
12:55 PM 48.2°F 46.4°F 93% 29.99 in 10.0 miles ESE 10.4 mph - 0.00 in   Overcast
1:15 PM 48.2°F 46.4°F 93% 29.98 in 10.0 miles ESE 8.1 mph - 0.00 in   Overcast
1:35 PM 48.2°F 46.4°F 93% 29.98 in 10.0 miles SE 8.1 mph - 0.00 in   Overcast
1:55 PM 48.2°F 46.4°F 93% 29.98 in 10.0 miles SE 9.2 mph - 0.00 in   Overcast
2:15 PM 48.2°F 46.4°F 93% 29.96 in 10.0 miles ESE 8.1 mph - 0.00 in   Overcast
2:35 PM 48.2°F 46.4°F 93% 29.95 in 10.0 miles ESE 10.4 mph - 0.00 in   Overcast
2:55 PM 48.2°F 44.6°F 87% 29.95 in 10.0 miles ESE 10.4 mph 18.4 mph 0.00 in   Overcast
3:15 PM 48.2°F 44.6°F 87% 29.94 in 10.0 miles ESE 10.4 mph - 0.00 in   Overcast
3:35 PM 48.2°F 44.6°F 87% 29.94 in 10.0 miles ESE 6.9 mph - 0.00 in   Overcast
3:55 PM 48.2°F 44.6°F 87% 29.93 in 10.0 miles ESE 9.2 mph - 0.00 in   Overcast
4:15 PM 48.2°F 44.6°F 87% 29.92 in 10.0 miles East 8.1 mph - 0.00 in   Overcast
4:35 PM 48.2°F 44.6°F 87% 29.91 in 10.0 miles ESE 10.4 mph - 0.00 in   Overcast
4:55 PM 48.2°F 44.6°F 87% 29.90 in 10.0 miles East 11.5 mph - 0.00 in   Overcast
5:15 PM 48.2°F 44.6°F 87% 29.90 in 10.0 miles ESE 10.4 mph - 0.00 in   Overcast
5:35 PM 48.2°F 46.4°F 93% 29.89 in 10.0 miles SE 12.7 mph - 0.00 in   Overcast
5:55 PM 48.2°F 46.4°F 93% 29.88 in 10.0 miles SE 10.4 mph - 0.00 in   Overcast
6:15 PM 50.0°F 46.4°F 87% 29.88 in 10.0 miles SE 8.1 mph - 0.00 in   Overcast
6:35 PM 50.0°F 46.4°F 87% 29.87 in 10.0 miles SE 12.7 mph 20.7 mph 0.00 in   Overcast
6:55 PM 51.8°F 46.4°F 82% 29.87 in 10.0 miles SE 10.4 mph 19.6 mph 0.00 in   Overcast
7:15 PM 51.8°F 46.4°F 82% 29.86 in 10.0 miles SSE 12.7 mph 20.7 mph 0.00 in   Overcast
7:35 PM 50.0°F 46.4°F 87% 29.84 in 10.0 miles SE 11.5 mph 20.7 mph 0.00 in   Overcast
7:55 PM 50.0°F 46.4°F 87% 29.84 in 10.0 miles SE 13.8 mph 19.6 mph 0.00 in   Overcast
8:15 PM 51.8°F 46.4°F 82% 29.82 in 10.0 miles SE 12.7 mph - 0.00 in   Overcast
8:35 PM 51.8°F 46.4°F 82% 29.81 in 10.0 miles SE 13.8 mph 27.6 mph 0.00 in   Overcast
8:55 PM 51.8°F 46.4°F 82% 29.80 in 10.0 miles SE 12.7 mph 20.7 mph 0.00 in   Mostly Cloudy
9:15 PM 51.8°F 46.4°F 82% 29.78 in 10.0 miles ESE 13.8 mph 20.7 mph 0.00 in   Mostly Cloudy
9:35 PM 51.8°F 46.4°F 82% 29.76 in 10.0 miles SE 12.7 mph 21.9 mph 0.00 in   Overcast
10:15 PM 50.0°F 46.4°F 87% 29.72 in 10.0 miles East 16.1 mph - 0.00 in   Overcast
10:35 PM 48.2°F 44.6°F 87% 29.69 in 10.0 miles ENE 13.8 mph - 0.00 in   Overcast
10:55 PM 48.2°F 44.6°F 87% 29.67 in 10.0 miles ENE 15.0 mph - 0.00 in   Mostly Cloudy
11:15 PM 48.2°F 44.6°F 87% 29.66 in 10.0 miles East 9.2 mph - 0.00 in   Overcast
11:35 PM 48.2°F 44.6°F 87% 29.64 in 10.0 miles East 11.5 mph - 0.00 in   Overcast
11:55 PM 48.2°F 44.6°F 87% 29.62 in 10.0 miles East 9.2 mph - 0.00 in   Overcast
Moon Phase
Dec. 03 Dec. 06 Dec. 13 Dec. 20 Dec. 28
Sunrise:07:43 AM (PST) Moon Rise:09:22 PM (PST)12/3
Sunset:04:15 PM (PST) Moon Set:10:57 AM (PST)12/3

Copyright © 2014 The Weather Underground, Inc.